• Join FlightAware (Why Join?)
  • Login
  • US Flag 
10:15AM EDT


 

Airport Tracker/Info


-or-


 

Live Flight TrackerFlight Track Log ✈ ASQ4909 ✈ 26-Apr-2012 ✈ KOMA - KMEM

Flight Track Log - Related Links

Times and Time Zones

All times are in EDT time to prevent confusion due to time zone crossing. See the ASQ4909 flight status page for this flight to view local times or setup timezone preferences in your user account.

Time Position Orientation Groundspeed Altitude Reporting Facility
EDT Latitude Longitude Course Direction KTS MPH feet Rate Location/Type
05:44PM 41.1913 -95.8206 358° North  Level FlightAware Approximate
05:45PM 41.2053 -95.8214 156° South 249 287 4,600  Level Minneapolis Center
05:46PM 41.1458 -95.7861 155° Southeast 282 325 7,000 2,400 Climbing Minneapolis Center
05:47PM 41.0697 -95.7392 157° South 294 338 9,500 1,800 Climbing Minneapolis Center
05:48PM 40.9875 -95.6922 156° South 308 354 10,600 1,020 Climbing Minneapolis Center
05:49PM 40.8931 -95.6367 157° South 342 394 11,600 1,140 Climbing Minneapolis Center
05:50PM 40.7900 -95.5783 157° South 378 435 12,900 1,200 Climbing Minneapolis Center
05:51PM 40.6831 -95.5175 157° South 404 465 14,000 1,320 Climbing Minneapolis Center
05:52PM 40.5781 -95.4594 156° South 412 474 15,600 1,380 Climbing Minneapolis Center
05:53PM 40.4133 -95.3614 158° South 428 493 17,600 1,080 Climbing Kansas City Center
05:54PM 40.3056 -95.3031 156° South 423 487 18,500 960 Climbing Kansas City Center
05:55PM 40.2081 -95.2475 157° South 423 487 19,600 1,020 Climbing Kansas City Center
05:56PM 40.0978 -95.1867 156° South 423 487 20,600 840 Climbing Kansas City Center
05:57PM 39.9794 -95.1178 157° South 428 493 21,300 720 Climbing Kansas City Center
05:58PM 39.8694 -95.0575 157° South 435 501 22,100 780 Climbing Kansas City Center
05:59PM 39.7697 -95.0028 157° South 430 495 22,900 780 Climbing Kansas City Center
06:00PM 39.6572 -94.9400 157° South 435 501 23,700 840 Climbing Kansas City Center
06:01PM 39.5347 -94.8719 156° South 429 494 24,600 780 Climbing Kansas City Center
06:02PM 39.4244 -94.8097 158° South 436 502 25,300 600 Climbing Kansas City Center
06:03PM 39.3119 -94.7500 152° Southeast 428 493 25,900 600 Climbing Kansas City Center
06:04PM 39.2142 -94.6828 150° Southeast 441 507 26,500 600 Climbing Kansas City Center
06:05PM 39.0953 -94.5942 150° Southeast 441 507 27,200 540 Climbing Kansas City Center
06:06PM 38.9869 -94.5139 150° Southeast 446 513 27,600 600 Climbing Kansas City Center
06:07PM 38.8786 -94.4339 151° Southeast 452 520 28,400 720 Climbing Kansas City Center
06:08PM 38.7783 -94.3622 151° Southeast 452 520 29,100 600 Climbing Kansas City Center
06:09PM 38.6678 -94.2853 149° Southeast 452 520 29,700 540 Climbing Kansas City Center
06:10PM 38.5486 -94.1928 152° Southeast 452 520 30,200 480 Climbing Kansas City Center
06:11PM 38.4381 -94.1164 134° Southeast 460 529 30,700 480 Climbing Kansas City Center
06:12PM 38.3625 -94.0161 132° Southeast 446 513 31,200 480 Climbing Kansas City Center
06:13PM 38.2764 -93.8950 131° Southeast 451 519 31,700 480 Climbing Kansas City Center
06:14PM 38.1925 -93.7742 132° Southeast 456 525 32,200 480 Climbing Kansas City Center
06:15PM 38.1039 -93.6511 132° Southeast 461 531 32,700 480 Climbing Kansas City Center
06:16PM 38.0197 -93.5308 132° Southeast 466 536 33,200 480 Climbing Kansas City Center
06:17PM 37.9331 -93.4081 133° Southeast 466 536 33,700 480 Climbing Kansas City Center
06:18PM 37.8464 -93.2911 132° Southeast 466 536 34,200 480 Climbing Kansas City Center
06:19PM 37.7617 -93.1717 133° Southeast 461 531 34,700 360 Climbing Kansas City Center
06:20PM 37.6769 -93.0550 133° Southeast 461 531 35,000 120 Climbing Kansas City Center
06:21PM 37.5878 -92.9336 132° Southeast 466 536 35,000  Level Kansas City Center
06:22PM 37.5006 -92.8122 133° Southeast 466 536 35,000 -480 Level Kansas City Center
06:24PM 37.3106 -92.5525 133° Southeast 488 562 33,600 -720 Descending Memphis Center
06:25PM 37.2108 -92.4169 133° Southeast 512 589 33,000 -360 Descending Memphis Center
06:26PM 37.1089 -92.2792 133° Southeast 524 603 33,000  Level Memphis Center
06:27PM 37.0108 -92.1469 133° Southeast 524 603 33,000  Level Memphis Center
06:28PM 36.9125 -92.0150 133° Southeast 524 603 33,000  Level Memphis Center
06:29PM 36.8142 -91.8833 137° Southeast 519 597 33,000  Level Memphis Center
06:30PM 36.7094 -91.7622 144° Southeast 519 597 33,000  Level Memphis Center
06:31PM 36.5917 -91.6569 146° Southeast 519 597 33,000 -300 Level Memphis Center
06:32PM 36.4614 -91.5464 144° Southeast 519 597 32,500 -780 Descending Memphis Center
06:33PM 36.3417 -91.4392 145° Southeast 524 603 31,500 -1,920 Descending Memphis Center
06:34PM 36.2194 -91.3319 143° Southeast 536 617 28,700 -2,940 Descending Memphis Center
06:35PM 36.1097 -91.2281 145° Southeast 530 610 25,700 -3,120 Descending Memphis Center
06:36PM 35.9936 -91.1292 145° Southeast 513 590 22,500 -3,000 Descending Memphis Center
06:37PM 35.8878 -91.0361 144° Southeast 489 563 19,700 -2,700 Descending Memphis Center
06:38PM 35.7881 -90.9481 145° Southeast 468 539 17,100 -2,520 Descending Memphis Center
06:39PM 35.6906 -90.8631 142° Southeast 447 514 14,700 -2,220 Descending Memphis Center
06:40PM 35.6117 -90.7886 145° Southeast 417 480 12,700 -2,040 Descending Memphis Center
06:41PM 35.5200 -90.7092 141° Southeast 406 467 10,700 -1,380 Descending Memphis Center
06:42PM 35.4367 -90.6272 114° Southeast 401 461 10,000 -360 Descending Memphis Center
06:43PM 35.3972 -90.5200 101° East 352 405 10,000 -300 Level Memphis Center
06:44PM 35.3828 -90.4258 102° East 303 349 9,400 -1,020 Descending Memphis Center
06:45PM 35.3683 -90.3392 110° East 269 310 8,000 -1,440 Descending Memphis Center
06:46PM 35.3431 -90.2553 108° East 249 287 6,600 -1,020 Descending Memphis Center
06:47PM 35.3222 -90.1764 110° East 239 275 6,000 -960 Descending Memphis Center
06:48PM 35.2992 -90.0975 122° Southeast 239 275 4,700 -1,260 Descending Memphis Center
06:49PM 35.2833 -90.0667 149° Southeast 247 284 4,000 -1,260 Descending Anchorage Center
06:50PM 35.2167 -90.0167 151° Southeast 238 274 2,700 -1,020 Descending Anchorage Center
06:51PM 35.1667 -89.9833 180° South 205 236 2,100 -540 Descending Anchorage Center
06:52PM 35.1167 -89.9833 180° South 164 189 1,600 -600 Descending Anchorage Center
06:53PM 35.0667 -89.9833 186° South 143 165 800 -840 Descending Anchorage Center
07:02PM 34.8060 -90.0188 North  Level FlightAware Approximate
07:03PM 34.9155 -89.9969 12° North  Level FlightAware Approximate
07:04PM 35.0240 -89.9698 343° North  Level FlightAware Approximate
07:05PM 35.1301 -90.0096 163° South  Level Estimated
07:06PM 35.0240 -89.9698 343° North  Level Estimated
07:07PM 35.1301 -90.0096 160° South  Level Estimated
07:08PM 35.0333 -89.9667 318° Northwest  Level FlightAware Approximate
07:09PM 35.1157 -90.0574 138° Southeast  Level Estimated
07:10PM 35.0333 -89.9667 318° Northwest  Level FlightAware Approximate
07:11PM 35.1157 -90.0574 138° Southeast  Level Estimated
07:12PM 35.0333 -89.9667 138° Southeast  Level FlightAware Approximate